Home > Weather > Stamford > Past weeks

Flag for USA Past Weather in Stamford, Connecticut, USA — Yesterday and Last 2 Weeks

Now
74 °F

Passing clouds.


Feels Like: 72 °F
Forecast: 74 / 90 °F
Wind: 3 mph from South

Location: Westchester County Airport

Current Time: Aug 26, 2016 at 8:15:09 AM

Latest Report: Aug 26, 2016 at 6:56 AM


Visibility: 7 mi

Pressure: 29.96 "Hg

Humidity: 91%

Dew Point: 71 °F

Location of StamfordLocation

Past Weather in Stamford — Graph

°F

Stamford Temperature Yesterday

Maximum temperature yesterday: 82 °F (at 1:56 PM)
Minimum temperature yesterday: 66 °F (at 6:56 AM)
Average temperature yesterday: 75 °F

High & Low Weather Summary for the Past Weeks

 TemperatureHumidityPressure
High94 °F (Aug 13, 12:56 PM)97% (Aug 21, 1:56 AM)30.32 "Hg (Aug 21, 1:56 AM)
Low54 °F (Aug 23, 5:56 AM)37% (Aug 23, 11:56 AM)29.77 "Hg (Aug 21, 8:56 PM)
Average77 °F74%30.00 "Hg
* Reported Aug 11 6:56 AM — Aug 26 6:56 AM, Stamford, Weather by CustomWeather, © 2016

Note: Actual official high and low records may vary slightly from our data, if they occured in-between our weather recording intervals... More about our weather records

Advertising

Stamford Weather History for the Previous 24 Hours

Scroll right to see more
 ConditionsComfort  
Time TempWeatherWind HumidityBarometerVisibility
6:56 AM
Fri, Aug 26
74 °FPassing clouds.3 mph91%29.96 "Hg7 mi
5:56 AM73 °FPassing clouds.No wind90%29.96 "Hg8 mi
4:56 AM74 °FPassing clouds.No wind88%29.96 "Hg10 mi
3:56 AM76 °FPassing clouds.No wind85%29.96 "Hg10 mi
2:56 AM74 °FPassing clouds.3 mph88%29.96 "Hg10 mi
1:56 AM76 °FClear.5 mph82%29.96 "Hg10 mi
12:56 AM77 °FClear.6 mph79%29.98 "Hg10 mi
11:56 PM
Thu, Aug 25
74 °FClear.3 mph88%29.98 "Hg10 mi
10:56 PM75 °FMostly cloudy.No wind88%29.99 "Hg10 mi
9:56 PM73 °FPassing clouds.No wind90%30.00 "Hg10 mi
8:56 PM74 °FPassing clouds.3 mph88%30.00 "Hg10 mi
7:56 PM76 °FDrizzle. Broken clouds.6 mph80%30.00 "Hg8 mi
6:56 PM77 °FMostly cloudy.6 mph74%29.99 "Hg10 mi
5:56 PM78 °FPartly sunny.7 mph66%30.00 "Hg10 mi
4:56 PM79 °FBroken clouds.7 mph62%30.01 "Hg10 mi
3:56 PM80 °FPassing clouds.12 mph60%30.01 "Hg10 mi
2:56 PM82 °FPassing clouds.14 mph55%30.02 "Hg10 mi
1:56 PM82 °FSunny.12 mph56%30.04 "Hg10 mi
12:56 PM80 °FPassing clouds.13 mph58%30.05 "Hg10 mi
11:56 AM81 °FPassing clouds.14 mph58%30.06 "Hg10 mi
10:56 AM80 °FPassing clouds.6 mph60%30.08 "Hg10 mi
9:56 AM77 °FSunny.7 mph64%30.09 "Hg10 mi
8:56 AM74 °FPassing clouds.5 mph74%30.11 "Hg10 mi
Weather by CustomWeather, © 2016

See weather overviewHow to use our weather pages